Precipitable_Water
1.16 1.14 1.12 1.07 1.02 0.98 0.95 0.94 0.90 0.87 0.83 0.78 0.71 0.65 0.61 0.58 0.56 0.55 0.53 0.52 0.51 0.49 0.48 0.47 0.48 0.48 0.47 0.47 0.47 0.46 0.46 0.45 0.45 0.43 0.42 0.40 0.40 0.38 0.35 0.34 0.32 0.32 0.31 0.30 0.30 0.28 0.26 0.24 0.24 0.24 0.24 0.22 0.20 0.19 0.20 0.22 0.24 0.25 0.25 0.25 0.25 0.26 0.26 0.23 0.20 0.19 0.23 0.27 0.27 0.26 0.27 0.28 0.25 0.28 0.27 0.28 0.29 0.31 0.34 0.34 0.34 0.33 0.32 0.32 0.32
1.12 1.10 1.06 1.02 0.97 0.94 0.92 0.90 0.86 0.82 0.77 0.71 0.65 0.61 0.59 0.57 0.56 0.54 0.51 0.51 0.50 0.48 0.47 0.47 0.47 0.47 0.46 0.46 0.46 0.45 0.45 0.44 0.43 0.42 0.39 0.39 0.38 0.37 0.33 0.33 0.32 0.32 0.31 0.29 0.29 0.28 0.26 0.24 0.23 0.23 0.24 0.22 0.21 0.19 0.19 0.19 0.21 0.23 0.23 0.24 0.24 0.25 0.27 0.25 0.23 0.22 0.19 0.24 0.25 0.27 0.27 0.29 0.26 0.29 0.28 0.28 0.29 0.31 0.31 0.33 0.35 0.35 0.34 0.34 0.33
1.09 1.04 0.99 0.95 0.92 0.90 0.88 0.85 0.82 0.78 0.73 0.67 0.62 0.60 0.59 0.57 0.55 0.52 0.50 0.49 0.48 0.47 0.46 0.46 0.46 0.46 0.45 0.44 0.44 0.43 0.43 0.42 0.42 0.41 0.39 0.38 0.36 0.33 0.32 0.31 0.30 0.29 0.29 0.28 0.28 0.27 0.25 0.24 0.23 0.23 0.23 0.21 0.20 0.20 0.19 0.18 0.20 0.21 0.22 0.24 0.24 0.25 0.26 0.27 0.25 0.22 0.21 0.22 0.25 0.25 0.26 0.27 0.27 0.28 0.30 0.32 0.33 0.33 0.32 0.32 0.33 0.35 0.36 0.36 0.35
1.03 1.00 0.96 0.93 0.92 0.89 0.86 0.83 0.79 0.76 0.71 0.66 0.62 0.61 0.59 0.57 0.55 0.51 0.49 0.47 0.44 0.44 0.45 0.45 0.45 0.44 0.43 0.42 0.42 0.41 0.41 0.40 0.40 0.40 0.39 0.36 0.33 0.32 0.32 0.30 0.29 0.28 0.27 0.26 0.25 0.24 0.24 0.23 0.22 0.21 0.21 0.19 0.19 0.19 0.18 0.19 0.19 0.19 0.21 0.23 0.24 0.24 0.26 0.26 0.26 0.24 0.23 0.22 0.23 0.25 0.26 0.26 0.27 0.30 0.32 0.34 0.34 0.34 0.34 0.34 0.35 0.35 0.36 0.37 0.37
1.00 0.98 0.94 0.91 0.90 0.88 0.85 0.82 0.78 0.74 0.69 0.65 0.62 0.61 0.60 0.57 0.55 0.51 0.47 0.44 0.42 0.40 0.41 0.42 0.42 0.41 0.40 0.40 0.39 0.39 0.39 0.39 0.38 0.37 0.36 0.37 0.37 0.36 0.33 0.30 0.28 0.27 0.26 0.26 0.25 0.24 0.24 0.22 0.21 0.22 0.21 0.19 0.18 0.17 0.17 0.17 0.19 0.19 0.20 0.22 0.24 0.25 0.26 0.25 0.24 0.25 0.23 0.22 0.23 0.26 0.28 0.27 0.29 0.30 0.33 0.32 0.32 0.34 0.36 0.35 0.35 0.35 0.36 0.38 0.39
0.98 0.97 0.93 0.89 0.88 0.86 0.84 0.80 0.76 0.72 0.68 0.65 0.62 0.61 0.58 0.55 0.52 0.49 0.45 0.42 0.41 0.39 0.37 0.38 0.38 0.38 0.39 0.39 0.39 0.38 0.39 0.38 0.37 0.37 0.38 0.38 0.38 0.37 0.35 0.31 0.29 0.27 0.26 0.26 0.27 0.25 0.23 0.23 0.22 0.22 0.21 0.19 0.17 0.16 0.17 0.18 0.19 0.19 0.20 0.21 0.23 0.25 0.24 0.23 0.24 0.24 0.23 0.23 0.24 0.23 0.26 0.26 0.26 0.29 0.32 0.33 0.33 0.32 0.33 0.35 0.36 0.37 0.38 0.37 0.38
0.97 0.95 0.92 0.89 0.86 0.84 0.82 0.79 0.76 0.71 0.68 0.65 0.63 0.60 0.56 0.52 0.49 0.46 0.45 0.41 0.38 0.36 0.35 0.34 0.35 0.36 0.37 0.37 0.37 0.38 0.38 0.38 0.37 0.37 0.38 0.37 0.36 0.35 0.34 0.32 0.31 0.29 0.28 0.28 0.27 0.26 0.24 0.23 0.24 0.23 0.21 0.19 0.17 0.17 0.18 0.18 0.19 0.19 0.21 0.21 0.23 0.22 0.22 0.22 0.23 0.23 0.23 0.22 0.23 0.24 0.24 0.26 0.28 0.28 0.32 0.35 0.35 0.36 0.34 0.33 0.32 0.37 0.39 0.39 0.37
0.96 0.95 0.93 0.89 0.86 0.83 0.80 0.78 0.74 0.70 0.67 0.65 0.62 0.59 0.55 0.52 0.49 0.47 0.46 0.40 0.36 0.35 0.33 0.32 0.33 0.33 0.34 0.35 0.36 0.37 0.37 0.37 0.37 0.37 0.37 0.36 0.35 0.35 0.34 0.33 0.31 0.30 0.29 0.29 0.28 0.26 0.24 0.24 0.24 0.24 0.22 0.19 0.19 0.19 0.20 0.20 0.21 0.20 0.21 0.22 0.22 0.22 0.22 0.22 0.22 0.22 0.21 0.21 0.22 0.22 0.24 0.25 0.28 0.31 0.33 0.34 0.33 0.34 0.36 0.36 0.33 0.35 0.36 0.39 0.40
0.96 0.94 0.91 0.86 0.83 0.81 0.78 0.75 0.72 0.70 0.67 0.64 0.61 0.58 0.55 0.52 0.50 0.47 0.44 0.38 0.35 0.34 0.33 0.32 0.31 0.30 0.31 0.33 0.34 0.36 0.37 0.36 0.37 0.37 0.37 0.35 0.35 0.34 0.34 0.33 0.32 0.30 0.29 0.29 0.28 0.27 0.26 0.25 0.24 0.24 0.23 0.21 0.21 0.21 0.21 0.23 0.22 0.21 0.21 0.23 0.23 0.22 0.22 0.22 0.22 0.22 0.21 0.21 0.21 0.23 0.23 0.24 0.27 0.29 0.30 0.31 0.32 0.33 0.37 0.39 0.37 0.39 0.39 0.39 0.41
0.95 0.92 0.87 0.84 0.82 0.79 0.75 0.73 0.71 0.69 0.67 0.63 0.60 0.57 0.54 0.52 0.49 0.45 0.40 0.35 0.34 0.33 0.32 0.32 0.30 0.29 0.30 0.31 0.33 0.34 0.35 0.37 0.37 0.37 0.37 0.36 0.34 0.33 0.33 0.33 0.33 0.31 0.30 0.29 0.28 0.28 0.26 0.24 0.24 0.23 0.21 0.21 0.22 0.22 0.22 0.22 0.23 0.23 0.23 0.23 0.23 0.23 0.22 0.22 0.22 0.22 0.21 0.20 0.21 0.22 0.22 0.24 0.27 0.30 0.32 0.34 0.37 0.39 0.39 0.39 0.38 0.40 0.41 0.40 0.41
0.93 0.89 0.84 0.82 0.79 0.76 0.73 0.71 0.70 0.67 0.66 0.62 0.58 0.54 0.52 0.50 0.47 0.44 0.39 0.36 0.33 0.32 0.31 0.30 0.30 0.30 0.29 0.30 0.31 0.32 0.34 0.36 0.37 0.37 0.37 0.36 0.34 0.32 0.32 0.31 0.32 0.31 0.30 0.28 0.27 0.27 0.26 0.23 0.22 0.22 0.20 0.21 0.22 0.22 0.22 0.23 0.23 0.23 0.23 0.23 0.24 0.23 0.23 0.22 0.22 0.22 0.21 0.21 0.22 0.22 0.23 0.25 0.28 0.32 0.34 0.36 0.38 0.39 0.40 0.41 0.41 0.42 0.41 0.39 0.35
0.90 0.86 0.83 0.80 0.77 0.73 0.71 0.70 0.68 0.67 0.65 0.60 0.57 0.55 0.52 0.49 0.47 0.44 0.39 0.34 0.32 0.31 0.30 0.29 0.29 0.29 0.29 0.30 0.30 0.31 0.33 0.35 0.36 0.37 0.37 0.37 0.36 0.35 0.34 0.32 0.31 0.30 0.29 0.28 0.27 0.26 0.24 0.23 0.22 0.21 0.20 0.22 0.23 0.22 0.22 0.22 0.22 0.22 0.22 0.22 0.22 0.23 0.24 0.23 0.22 0.21 0.22 0.21 0.21 0.22 0.25 0.27 0.30 0.33 0.35 0.37 0.38 0.40 0.42 0.44 0.45 0.44 0.43 0.42 0.42
0.88 0.84 0.82 0.78 0.75 0.73 0.71 0.69 0.67 0.65 0.62 0.59 0.57 0.55 0.51 0.48 0.46 0.43 0.37 0.33 0.31 0.29 0.29 0.28 0.28 0.29 0.29 0.29 0.29 0.31 0.33 0.35 0.36 0.36 0.36 0.35 0.36 0.36 0.35 0.29 0.28 0.28 0.29 0.28 0.26 0.25 0.24 0.23 0.21 0.20 0.20 0.22 0.23 0.23 0.22 0.21 0.21 0.21 0.21 0.21 0.21 0.22 0.22 0.23 0.25 0.25 0.24 0.23 0.22 0.23 0.26 0.29 0.31 0.34 0.38 0.39 0.42 0.41 0.44 0.45 0.47 0.47 0.47 0.46 0.45
0.86 0.82 0.80 0.78 0.75 0.73 0.70 0.68 0.65 0.63 0.61 0.59 0.56 0.53 0.50 0.47 0.45 0.42 0.35 0.32 0.29 0.28 0.28 0.27 0.27 0.28 0.28 0.29 0.30 0.31 0.33 0.34 0.35 0.35 0.35 0.35 0.35 0.34 0.32 0.30 0.29 0.28 0.28 0.28 0.26 0.25 0.24 0.23 0.20 0.18 0.20 0.22 0.23 0.23 0.22 0.21 0.20 0.20 0.20 0.20 0.20 0.21 0.21 0.22 0.23 0.23 0.23 0.24 0.24 0.24 0.29 0.33 0.34 0.37 0.41 0.43 0.43 0.44 0.46 0.46 0.48 0.48 0.48 0.47 0.50
0.85 0.82 0.79 0.77 0.74 0.72 0.69 0.66 0.64 0.62 0.59 0.57 0.55 0.52 0.49 0.47 0.45 0.40 0.34 0.31 0.28 0.27 0.27 0.26 0.27 0.27 0.28 0.29 0.30 0.31 0.32 0.34 0.34 0.34 0.33 0.33 0.33 0.32 0.31 0.30 0.28 0.27 0.27 0.28 0.27 0.24 0.23 0.23 0.20 0.20 0.21 0.22 0.23 0.23 0.22 0.21 0.20 0.19 0.19 0.19 0.19 0.20 0.20 0.21 0.22 0.22 0.23 0.24 0.26 0.28 0.31 0.35 0.37 0.40 0.42 0.45 0.47 0.49 0.51 0.51 0.52 0.52 0.52 0.54 0.52
0.81 0.79 0.76 0.74 0.72 0.70 0.67 0.65 0.62 0.59 0.57 0.54 0.52 0.50 0.48 0.46 0.42 0.40 0.36 0.33 0.30 0.29 0.28 0.27 0.26 0.26 0.27 0.28 0.28 0.29 0.31 0.32 0.32 0.31 0.30 0.30 0.31 0.30 0.30 0.29 0.27 0.25 0.25 0.26 0.26 0.25 0.24 0.22 0.21 0.21 0.22 0.22 0.22 0.22 0.22 0.21 0.19 0.18 0.18 0.18 0.18 0.19 0.19 0.22 0.23 0.22 0.24 0.26 0.27 0.29 0.32 0.35 0.38 0.40 0.43 0.46 0.49 0.52 0.54 0.56 0.56 0.55 0.51 0.48 0.45
0.78 0.76 0.73 0.71 0.70 0.68 0.66 0.63 0.60 0.58 0.55 0.53 0.51 0.50 0.47 0.45 0.43 0.42 0.38 0.35 0.31 0.30 0.28 0.27 0.27 0.26 0.26 0.26 0.25 0.26 0.28 0.30 0.30 0.28 0.25 0.25 0.25 0.27 0.27 0.27 0.26 0.25 0.23 0.24 0.24 0.24 0.23 0.23 0.23 0.22 0.22 0.21 0.22 0.21 0.21 0.20 0.19 0.18 0.18 0.17 0.17 0.18 0.18 0.20 0.21 0.22 0.24 0.25 0.27 0.29 0.31 0.34 0.37 0.39 0.43 0.47 0.50 0.53 0.53 0.52 0.50 0.52 0.48 0.44 0.44
0.75 0.73 0.71 0.71 0.69 0.67 0.65 0.62 0.59 0.56 0.54 0.51 0.50 0.49 0.47 0.46 0.43 0.43 0.39 0.36 0.34 0.33 0.32 0.30 0.28 0.27 0.25 0.24 0.24 0.23 0.24 0.25 0.24 0.23 0.21 0.21 0.21 0.21 0.22 0.22 0.23 0.23 0.22 0.23 0.23 0.21 0.21 0.22 0.23 0.23 0.22 0.21 0.21 0.20 0.20 0.21 0.19 0.19 0.18 0.17 0.16 0.16 0.17 0.19 0.19 0.21 0.23 0.24 0.26 0.28 0.30 0.33 0.35 0.38 0.42 0.47 0.51 0.54 0.53 0.48 0.52 0.52 0.47 0.46 0.42
0.75 0.73 0.72 0.71 0.69 0.66 0.64 0.61 0.58 0.55 0.52 0.51 0.49 0.47 0.45 0.44 0.44 0.44 0.41 0.39 0.36 0.36 0.34 0.31 0.30 0.29 0.27 0.25 0.25 0.23 0.23 0.24 0.23 0.22 0.22 0.21 0.20 0.18 0.18 0.18 0.18 0.19 0.20 0.21 0.20 0.19 0.20 0.21 0.22 0.22 0.22 0.21 0.20 0.20 0.20 0.21 0.20 0.20 0.19 0.18 0.16 0.16 0.17 0.18 0.18 0.19 0.21 0.22 0.23 0.26 0.28 0.30 0.34 0.37 0.41 0.46 0.51 0.54 0.56 0.56 0.56 0.52 0.48 0.47 0.46
0.77 0.75 0.73 0.70 0.67 0.65 0.63 0.60 0.57 0.54 0.51 0.50 0.49 0.46 0.45 0.44 0.43 0.43 0.41 0.39 0.38 0.37 0.34 0.31 0.30 0.30 0.31 0.29 0.27 0.24 0.23 0.23 0.23 0.23 0.22 0.20 0.19 0.18 0.17 0.15 0.14 0.15 0.16 0.17 0.17 0.18 0.20 0.20 0.21 0.21 0.22 0.21 0.21 0.20 0.20 0.20 0.21 0.21 0.20 0.18 0.17 0.16 0.19 0.17 0.18 0.20 0.20 0.22 0.23 0.25 0.27 0.29 0.31 0.34 0.38 0.43 0.49 0.53 0.56 0.58 0.58 0.56 0.51 0.49 0.47
0.75 0.73 0.71 0.68 0.65 0.63 0.61 0.58 0.55 0.54 0.51 0.48 0.46 0.45 0.44 0.42 0.42 0.41 0.39 0.39 0.37 0.36 0.33 0.31 0.32 0.33 0.35 0.35 0.30 0.26 0.24 0.22 0.22 0.22 0.21 0.20 0.18 0.17 0.16 0.15 0.16 0.16 0.16 0.17 0.17 0.18 0.19 0.20 0.21 0.22 0.22 0.22 0.22 0.20 0.20 0.20 0.21 0.21 0.19 0.19 0.19 0.20 0.19 0.17 0.17 0.20 0.20 0.21 0.23 0.24 0.25 0.27 0.29 0.31 0.35 0.40 0.46 0.51 0.55 0.59 0.60 0.59 0.55 0.50 0.47
0.73 0.71 0.68 0.65 0.63 0.61 0.59 0.58 0.56 0.53 0.51 0.49 0.47 0.45 0.45 0.43 0.41 0.39 0.38 0.36 0.34 0.32 0.32 0.32 0.33 0.35 0.37 0.37 0.34 0.29 0.27 0.24 0.22 0.22 0.20 0.19 0.18 0.17 0.16 0.16 0.17 0.17 0.17 0.17 0.19 0.20 0.20 0.21 0.21 0.23 0.23 0.23 0.22 0.21 0.20 0.20 0.21 0.20 0.19 0.20 0.20 0.19 0.18 0.18 0.18 0.19 0.19 0.20 0.21 0.23 0.24 0.26 0.27 0.29 0.32 0.37 0.42 0.49 0.54 0.58 0.60 0.61 0.60 0.57 0.52
0.72 0.69 0.66 0.63 0.61 0.59 0.59 0.57 0.55 0.53 0.51 0.49 0.46 0.43 0.43 0.41 0.38 0.35 0.32 0.30 0.29 0.30 0.32 0.34 0.35 0.35 0.36 0.36 0.36 0.33 0.31 0.28 0.24 0.20 0.19 0.18 0.17 0.17 0.17 0.17 0.18 0.19 0.18 0.18 0.20 0.20 0.22 0.22 0.23 0.23 0.24 0.24 0.23 0.21 0.20 0.20 0.20 0.19 0.19 0.19 0.20 0.19 0.19 0.18 0.18 0.18 0.18 0.19 0.20 0.21 0.23 0.25 0.26 0.28 0.30 0.34 0.39 0.46 0.53 0.58 0.60 0.61 0.61 0.60 0.59
0.70 0.67 0.64 0.62 0.60 0.60 0.59 0.57 0.54 0.52 0.49 0.48 0.46 0.43 0.41 0.40 0.39 0.38 0.37 0.34 0.33 0.33 0.35 0.36 0.36 0.35 0.34 0.36 0.38 0.35 0.32 0.29 0.26 0.21 0.19 0.18 0.17 0.17 0.17 0.18 0.20 0.21 0.21 0.21 0.22 0.22 0.22 0.22 0.23 0.24 0.24 0.24 0.23 0.22 0.21 0.20 0.20 0.18 0.19 0.19 0.19 0.19 0.19 0.19 0.18 0.18 0.18 0.18 0.19 0.20 0.22 0.25 0.26 0.28 0.29 0.32 0.37 0.43 0.51 0.56 0.59 0.60 0.61 0.60 0.60
0.67 0.66 0.63 0.62 0.61 0.60 0.58 0.56 0.53 0.51 0.49 0.47 0.44 0.42 0.40 0.41 0.40 0.40 0.38 0.35 0.35 0.35 0.36 0.37 0.36 0.36 0.37 0.36 0.35 0.33 0.30 0.28 0.26 0.23 0.20 0.17 0.17 0.17 0.18 0.19 0.21 0.22 0.22 0.23 0.24 0.24 0.24 0.24 0.24 0.24 0.24 0.24 0.23 0.22 0.22 0.21 0.20 0.18 0.18 0.19 0.19 0.19 0.19 0.19 0.19 0.18 0.17 0.18 0.19 0.20 0.22 0.24 0.26 0.28 0.30 0.31 0.35 0.40 0.47 0.54 0.59 0.60 0.61 0.61 0.60
0.66 0.65 0.63 0.62 0.61 0.60 0.57 0.54 0.52 0.50 0.47 0.46 0.43 0.41 0.40 0.40 0.39 0.38 0.37 0.35 0.35 0.36 0.37 0.38 0.38 0.39 0.37 0.35 0.33 0.31 0.29 0.27 0.26 0.24 0.21 0.18 0.17 0.17 0.19 0.20 0.22 0.23 0.23 0.24 0.24 0.25 0.25 0.25 0.25 0.25 0.24 0.24 0.24 0.23 0.22 0.21 0.21 0.19 0.19 0.19 0.19 0.19 0.19 0.19 0.19 0.18 0.18 0.18 0.19 0.20 0.22 0.23 0.25 0.27 0.29 0.29 0.31 0.34 0.41 0.47 0.54 0.56 0.57 0.57 0.56
0.65 0.64 0.62 0.62 0.61 0.59 0.55 0.52 0.50 0.49 0.47 0.46 0.45 0.43 0.43 0.42 0.40 0.38 0.37 0.35 0.35 0.37 0.38 0.39 0.39 0.37 0.35 0.34 0.32 0.31 0.28 0.27 0.26 0.24 0.21 0.18 0.16 0.18 0.20 0.21 0.22 0.23 0.24 0.24 0.25 0.25 0.25 0.26 0.26 0.26 0.26 0.25 0.25 0.24 0.23 0.22 0.22 0.20 0.20 0.20 0.20 0.19 0.19 0.19 0.20 0.19 0.19 0.19 0.19 0.20 0.22 0.24 0.25 0.25 0.26 0.26 0.28 0.31 0.37 0.42 0.50 0.54 0.55 0.56 0.55
0.64 0.63 0.62 0.61 0.60 0.58 0.55 0.51 0.48 0.47 0.46 0.45 0.43 0.43 0.43 0.42 0.40 0.36 0.35 0.35 0.38 0.38 0.38 0.38 0.37 0.35 0.33 0.32 0.32 0.30 0.27 0.26 0.26 0.24 0.21 0.18 0.15 0.17 0.20 0.21 0.22 0.22 0.23 0.24 0.25 0.26 0.26 0.27 0.27 0.26 0.26 0.25 0.24 0.24 0.23 0.22 0.22 0.22 0.21 0.21 0.21 0.21 0.20 0.20 0.20 0.20 0.20 0.20 0.20 0.21 0.22 0.23 0.22 0.23 0.25 0.25 0.26 0.29 0.33 0.36 0.43 0.50 0.54 0.54 0.52
0.63 0.62 0.61 0.60 0.58 0.57 0.53 0.50 0.48 0.46 0.44 0.43 0.43 0.41 0.39 0.39 0.37 0.36 0.39 0.43 0.43 0.40 0.39 0.38 0.36 0.35 0.33 0.31 0.29 0.27 0.26 0.25 0.26 0.25 0.22 0.19 0.15 0.15 0.18 0.20 0.22 0.23 0.24 0.25 0.26 0.26 0.26 0.25 0.25 0.25 0.25 0.24 0.23 0.23 0.22 0.22 0.22 0.23 0.22 0.22 0.22 0.22 0.21 0.19 0.19 0.19 0.20 0.20 0.19 0.20 0.20 0.22 0.22 0.23 0.23 0.24 0.25 0.27 0.30 0.32 0.37 0.44 0.51 0.53 0.50
0.61 0.60 0.60 0.59 0.57 0.55 0.52 0.49 0.47 0.45 0.43 0.41 0.41 0.42 0.43 0.42 0.40 0.41 0.43 0.47 0.47 0.46 0.44 0.38 0.36 0.35 0.32 0.31 0.31 0.27 0.26 0.28 0.28 0.25 0.23 0.19 0.17 0.16 0.18 0.21 0.23 0.24 0.25 0.26 0.26 0.24 0.24 0.24 0.24 0.24 0.24 0.24 0.23 0.22 0.22 0.22 0.22 0.22 0.23 0.23 0.23 0.23 0.22 0.21 0.20 0.20 0.21 0.20 0.20 0.20 0.20 0.21 0.21 0.22 0.22 0.22 0.24 0.26 0.28 0.30 0.31 0.37 0.42 0.48 0.49
0.61 0.59 0.59 0.58 0.57 0.54 0.50 0.48 0.46 0.44 0.42 0.41 0.39 0.37 0.36 0.39 0.44 0.46 0.47 0.47 0.45 0.44 0.42 0.39 0.36 0.34 0.32 0.30 0.31 0.31 0.29 0.28 0.27 0.26 0.23 0.19 0.17 0.17 0.18 0.20 0.22 0.24 0.26 0.26 0.25 0.24 0.24 0.23 0.23 0.24 0.24 0.24 0.23 0.23 0.23 0.22 0.22 0.23 0.23 0.24 0.24 0.24 0.24 0.23 0.21 0.22 0.21 0.21 0.20 0.20 0.20 0.21 0.21 0.22 0.22 0.22 0.23 0.24 0.25 0.27 0.29 0.31 0.35 0.41 0.46
0.60 0.60 0.60 0.58 0.56 0.52 0.49 0.47 0.45 0.43 0.41 0.40 0.38 0.36 0.36 0.38 0.42 0.46 0.47 0.45 0.43 0.40 0.39 0.37 0.35 0.34 0.32 0.31 0.30 0.29 0.29 0.28 0.26 0.25 0.23 0.20 0.18 0.18 0.18 0.20 0.22 0.24 0.26 0.27 0.25 0.25 0.25 0.24 0.23 0.23 0.24 0.23 0.23 0.23 0.23 0.23 0.23 0.23 0.24 0.24 0.24 0.25 0.25 0.24 0.24 0.23 0.22 0.21 0.21 0.20 0.20 0.21 0.22 0.23 0.23 0.22 0.23 0.23 0.24 0.25 0.26 0.28 0.30 0.33 0.39
0.62 0.61 0.60 0.58 0.55 0.52 0.49 0.46 0.44 0.41 0.39 0.38 0.37 0.37 0.38 0.40 0.40 0.40 0.42 0.42 0.41 0.40 0.39 0.37 0.35 0.33 0.32 0.31 0.30 0.27 0.26 0.26 0.24 0.22 0.20 0.19 0.19 0.19 0.20 0.21 0.23 0.25 0.26 0.25 0.25 0.24 0.25 0.25 0.24 0.24 0.24 0.23 0.23 0.23 0.23 0.23 0.23 0.23 0.24 0.25 0.25 0.26 0.26 0.27 0.27 0.24 0.23 0.23 0.22 0.21 0.20 0.20 0.21 0.22 0.23 0.23 0.23 0.22 0.23 0.23 0.25 0.27 0.28 0.29 0.31
0.63 0.61 0.60 0.57 0.54 0.51 0.48 0.46 0.43 0.40 0.39 0.37 0.36 0.38 0.41 0.42 0.41 0.39 0.36 0.35 0.36 0.37 0.37 0.36 0.35 0.34 0.33 0.32 0.30 0.26 0.23 0.21 0.20 0.19 0.19 0.20 0.20 0.20 0.20 0.21 0.23 0.25 0.25 0.25 0.25 0.25 0.25 0.25 0.25 0.25 0.25 0.25 0.24 0.24 0.24 0.23 0.23 0.23 0.24 0.25 0.26 0.27 0.27 0.28 0.27 0.25 0.24 0.24 0.23 0.22 0.21 0.21 0.21 0.21 0.22 0.23 0.23 0.23 0.22 0.23 0.23 0.25 0.26 0.28 0.29
0.64 0.62 0.60 0.57 0.53 0.49 0.47 0.45 0.42 0.40 0.38 0.37 0.38 0.40 0.41 0.42 0.41 0.38 0.35 0.34 0.33 0.31 0.31 0.31 0.32 0.31 0.30 0.29 0.25 0.22 0.21 0.20 0.19 0.20 0.20 0.20 0.20 0.20 0.21 0.20 0.20 0.22 0.24 0.25 0.26 0.26 0.25 0.25 0.25 0.25 0.25 0.25 0.24 0.24 0.24 0.24 0.24 0.23 0.23 0.24 0.25 0.26 0.27 0.27 0.26 0.26 0.24 0.25 0.24 0.23 0.23 0.22 0.21 0.21 0.21 0.21 0.22 0.22 0.22 0.22 0.23 0.24 0.25 0.27 0.28
0.65 0.62 0.59 0.57 0.55 0.51 0.47 0.44 0.41 0.41 0.39 0.39 0.39 0.40 0.42 0.42 0.39 0.37 0.36 0.35 0.32 0.28 0.25 0.25 0.26 0.26 0.24 0.22 0.20 0.20 0.20 0.21 0.21 0.20 0.20 0.20 0.21 0.22 0.20 0.20 0.20 0.21 0.22 0.24 0.25 0.25 0.26 0.26 0.26 0.26 0.26 0.26 0.25 0.25 0.25 0.25 0.24 0.24 0.23 0.23 0.24 0.25 0.26 0.26 0.26 0.26 0.26 0.25 0.25 0.25 0.24 0.23 0.22 0.21 0.21 0.21 0.21 0.23 0.23 0.23 0.23 0.23 0.24 0.26 0.28
0.69 0.69 0.65 0.61 0.59 0.54 0.49 0.45 0.42 0.41 0.41 0.42 0.42 0.43 0.44 0.43 0.41 0.39 0.36 0.33 0.29 0.27 0.24 0.22 0.21 0.20 0.20 0.20 0.20 0.21 0.24 0.25 0.24 0.23 0.23 0.24 0.26 0.26 0.24 0.23 0.23 0.23 0.23 0.23 0.24 0.25 0.25 0.26 0.27 0.27 0.27 0.26 0.25 0.26 0.26 0.25 0.25 0.24 0.23 0.23 0.23 0.23 0.25 0.26 0.27 0.27 0.26 0.25 0.24 0.25 0.25 0.24 0.24 0.23 0.22 0.21 0.20 0.21 0.23 0.24 0.23 0.23 0.23 0.24 0.26
0.69 0.68 0.66 0.64 0.59 0.53 0.48 0.43 0.42 0.43 0.45 0.47 0.47 0.47 0.45 0.43 0.42 0.39 0.33 0.30 0.29 0.29 0.28 0.25 0.23 0.22 0.21 0.21 0.24 0.25 0.27 0.28 0.27 0.26 0.27 0.28 0.29 0.27 0.26 0.25 0.24 0.23 0.23 0.23 0.24 0.24 0.24 0.26 0.27 0.27 0.28 0.27 0.26 0.26 0.26 0.26 0.25 0.24 0.23 0.22 0.23 0.23 0.24 0.25 0.26 0.27 0.27 0.27 0.26 0.25 0.25 0.26 0.25 0.24 0.23 0.22 0.21 0.21 0.21 0.23 0.23 0.23 0.22 0.23 0.24
0.69 0.69 0.65 0.59 0.54 0.51 0.48 0.46 0.46 0.48 0.49 0.48 0.48 0.46 0.43 0.42 0.41 0.36 0.32 0.31 0.32 0.31 0.29 0.28 0.27 0.26 0.26 0.28 0.27 0.28 0.27 0.26 0.25 0.24 0.26 0.27 0.28 0.28 0.27 0.26 0.26 0.25 0.25 0.25 0.25 0.25 0.25 0.25 0.27 0.28 0.28 0.28 0.27 0.26 0.26 0.26 0.25 0.23 0.22 0.22 0.21 0.21 0.22 0.23 0.24 0.25 0.26 0.26 0.26 0.26 0.25 0.26 0.26 0.26 0.24 0.23 0.22 0.22 0.21 0.22 0.23 0.23 0.22 0.22 0.23
0.67 0.66 0.62 0.59 0.57 0.55 0.52 0.49 0.50 0.51 0.50 0.48 0.46 0.44 0.43 0.41 0.38 0.35 0.34 0.32 0.31 0.31 0.30 0.29 0.28 0.28 0.29 0.28 0.28 0.29 0.27 0.26 0.25 0.26 0.26 0.28 0.28 0.28 0.28 0.27 0.27 0.26 0.26 0.26 0.26 0.26 0.25 0.26 0.27 0.27 0.28 0.28 0.27 0.27 0.28 0.27 0.25 0.23 0.22 0.22 0.21 0.20 0.20 0.21 0.22 0.23 0.24 0.26 0.26 0.26 0.26 0.25 0.26 0.27 0.26 0.25 0.24 0.24 0.22 0.21 0.23 0.24 0.24 0.23 0.23
0.67 0.66 0.64 0.62 0.60 0.57 0.54 0.51 0.52 0.52 0.50 0.47 0.45 0.45 0.43 0.40 0.37 0.36 0.34 0.33 0.32 0.31 0.31 0.31 0.30 0.31 0.30 0.30 0.30 0.30 0.28 0.27 0.28 0.27 0.27 0.28 0.29 0.29 0.29 0.29 0.28 0.27 0.27 0.27 0.27 0.26 0.25 0.25 0.26 0.28 0.28 0.29 0.29 0.29 0.29 0.29 0.26 0.23 0.22 0.24 0.25 0.25 0.24 0.23 0.23 0.23 0.23 0.24 0.25 0.26 0.26 0.26 0.25 0.25 0.26 0.26 0.26 0.26 0.24 0.23 0.22 0.23 0.24 0.24 0.24
0.69 0.69 0.66 0.65 0.62 0.58 0.54 0.53 0.51 0.51 0.49 0.46 0.45 0.45 0.44 0.41 0.38 0.35 0.34 0.33 0.32 0.31 0.30 0.30 0.29 0.30 0.30 0.31 0.31 0.31 0.30 0.29 0.29 0.29 0.29 0.29 0.29 0.29 0.30 0.30 0.30 0.29 0.29 0.28 0.28 0.27 0.26 0.25 0.26 0.28 0.28 0.29 0.29 0.29 0.29 0.28 0.26 0.25 0.26 0.28 0.28 0.28 0.28 0.27 0.26 0.26 0.25 0.23 0.24 0.24 0.25 0.26 0.27 0.26 0.26 0.27 0.27 0.26 0.26 0.25 0.23 0.22 0.23 0.24 0.23
0.71 0.70 0.69 0.66 0.62 0.58 0.55 0.54 0.51 0.48 0.47 0.47 0.48 0.49 0.48 0.44 0.39 0.36 0.34 0.33 0.32 0.31 0.30 0.29 0.29 0.30 0.30 0.30 0.31 0.31 0.30 0.29 0.29 0.29 0.29 0.29 0.29 0.29 0.30 0.30 0.30 0.30 0.30 0.30 0.30 0.29 0.28 0.26 0.25 0.26 0.28 0.29 0.30 0.30 0.30 0.29 0.29 0.28 0.28 0.29 0.30 0.30 0.30 0.30 0.30 0.29 0.28 0.27 0.25 0.24 0.24 0.25 0.26 0.26 0.25 0.26 0.27 0.27 0.26 0.26 0.25 0.23 0.22 0.23 0.23
0.70 0.70 0.69 0.66 0.63 0.59 0.56 0.54 0.50 0.47 0.46 0.48 0.50 0.50 0.47 0.44 0.40 0.37 0.35 0.34 0.33 0.31 0.30 0.30 0.29 0.29 0.29 0.30 0.30 0.30 0.29 0.29 0.29 0.29 0.29 0.29 0.29 0.29 0.29 0.30 0.31 0.31 0.31 0.31 0.31 0.31 0.29 0.27 0.26 0.27 0.29 0.30 0.32 0.32 0.32 0.32 0.32 0.31 0.30 0.30 0.31 0.31 0.31 0.31 0.32 0.31 0.31 0.30 0.28 0.27 0.26 0.25 0.24 0.25 0.25 0.25 0.26 0.27 0.27 0.27 0.27 0.25 0.23 0.22 0.23
0.71 0.71 0.69 0.65 0.61 0.57 0.56 0.54 0.50 0.49 0.52 0.53 0.52 0.51 0.48 0.44 0.39 0.36 0.34 0.33 0.32 0.31 0.30 0.29 0.29 0.29 0.29 0.29 0.29 0.28 0.28 0.29 0.29 0.29 0.29 0.29 0.29 0.29 0.29 0.30 0.30 0.30 0.30 0.31 0.31 0.31 0.30 0.29 0.28 0.28 0.29 0.31 0.32 0.32 0.32 0.33 0.33 0.33 0.33 0.33 0.32 0.32 0.32 0.33 0.34 0.35 0.35 0.33 0.32 0.31 0.30 0.28 0.26 0.25 0.24 0.24 0.24 0.25 0.27 0.27 0.28 0.28 0.26 0.24 0.22
0.71 0.70 0.66 0.62 0.58 0.56 0.56 0.53 0.51 0.51 0.52 0.52 0.51 0.48 0.46 0.44 0.40 0.37 0.35 0.34 0.32 0.31 0.30 0.29 0.29 0.29 0.29 0.28 0.28 0.28 0.28 0.29 0.29 0.29 0.29 0.29 0.30 0.30 0.30 0.31 0.31 0.31 0.31 0.31 0.31 0.31 0.31 0.31 0.30 0.30 0.30 0.31 0.32 0.32 0.33 0.33 0.34 0.34 0.35 0.35 0.35 0.35 0.36 0.36 0.37 0.38 0.38 0.37 0.37 0.36 0.35 0.33 0.31 0.29 0.26 0.25 0.24 0.24 0.25 0.27 0.28 0.29 0.29 0.27 0.24
0.71 0.67 0.63 0.59 0.56 0.56 0.56 0.55 0.52 0.51 0.51 0.52 0.51 0.48 0.45 0.41 0.38 0.36 0.35 0.33 0.32 0.31 0.29 0.28 0.28 0.28 0.28 0.28 0.27 0.28 0.28 0.29 0.29 0.29 0.29 0.30 0.30 0.30 0.30 0.31 0.31 0.31 0.31 0.31 0.32 0.32 0.32 0.32 0.32 0.31 0.31 0.31 0.32 0.32 0.33 0.33 0.34 0.35 0.35 0.36 0.36 0.36 0.37 0.38 0.39 0.40 0.40 0.40 0.40 0.39 0.39 0.38 0.37 0.34 0.31 0.29 0.26 0.24 0.23 0.24 0.27 0.28 0.29 0.30 0.28
0.69 0.66 0.62 0.60 0.59 0.59 0.60 0.59 0.58 0.56 0.55 0.53 0.51 0.48 0.43 0.39 0.36 0.34 0.32 0.31 0.31 0.30 0.29 0.28 0.27 0.27 0.27 0.27 0.27 0.28 0.28 0.29 0.29 0.29 0.29 0.29 0.30 0.30 0.30 0.30 0.30 0.30 0.31 0.31 0.31 0.31 0.32 0.32 0.33 0.33 0.33 0.33 0.33 0.33 0.33 0.34 0.34 0.35 0.35 0.36 0.37 0.37 0.38 0.39 0.40 0.41 0.42 0.42 0.41 0.41 0.41 0.40 0.39 0.38 0.37 0.34 0.30 0.28 0.25 0.23 0.24 0.26 0.29 0.30 0.30
0.64 0.63 0.62 0.60 0.59 0.59 0.59 0.60 0.59 0.57 0.54 0.51 0.48 0.44 0.40 0.37 0.34 0.32 0.31 0.31 0.30 0.30 0.29 0.28 0.28 0.28 0.27 0.27 0.27 0.27 0.28 0.28 0.28 0.28 0.29 0.30 0.30 0.31 0.31 0.31 0.30 0.31 0.30 0.30 0.31 0.31 0.32 0.32 0.33 0.33 0.34 0.34 0.34 0.33 0.33 0.34 0.34 0.35 0.36 0.37 0.38 0.38 0.39 0.40 0.40 0.41 0.41 0.42 0.42 0.42 0.42 0.42 0.41 0.40 0.40 0.39 0.36 0.33 0.30 0.27 0.24 0.24 0.26 0.28 0.30
0.61 0.60 0.59 0.58 0.57 0.58 0.59 0.59 0.57 0.54 0.52 0.49 0.45 0.41 0.38 0.35 0.33 0.31 0.31 0.30 0.30 0.29 0.28 0.28 0.28 0.28 0.27 0.27 0.27 0.27 0.28 0.28 0.28 0.29 0.30 0.30 0.31 0.32 0.32 0.31 0.31 0.31 0.31 0.31 0.32 0.32 0.32 0.32 0.33 0.33 0.34 0.34 0.34 0.34 0.34 0.34 0.34 0.35 0.37 0.38 0.39 0.40 0.41 0.41 0.41 0.42 0.42 0.42 0.42 0.42 0.41 0.41 0.41 0.41 0.41 0.41 0.40 0.38 0.34 0.31 0.29 0.26 0.24 0.25 0.27
0.59 0.57 0.57 0.58 0.57 0.58 0.58 0.56 0.55 0.54 0.52 0.48 0.44 0.40 0.37 0.35 0.33 0.32 0.31 0.29 0.27 0.27 0.26 0.26 0.26 0.26 0.27 0.27 0.28 0.28 0.28 0.29 0.29 0.30 0.31 0.31 0.31 0.32 0.32 0.32 0.32 0.32 0.32 0.32 0.32 0.32 0.33 0.33 0.33 0.33 0.33 0.33 0.34 0.34 0.34 0.34 0.35 0.36 0.38 0.40 0.41 0.43 0.44 0.44 0.44 0.44 0.44 0.44 0.44 0.43 0.41 0.40 0.40 0.40 0.41 0.41 0.41 0.40 0.38 0.35 0.33 0.30 0.27 0.25 0.25
Wind_Speed
11 11 11 11 10 10 10 11 11 11 10 10 9 9 8 8 8 8 9 9 9 9 10 10 11 11 11 12 12 12 12 13 13 13 14 14 14 15 15 16 17 17 17 18 19 20 21 22 23 24 25 26 27 28 29 29 29 29 30 30 30 31 31 31 32 33 34 34 34 35 35 36 36 36 36 36 36 36 36 37 37 37 37 37 37
11 11 11 11 11 11 11 11 11 10 10 9 9 9 9 8 9 9 9 9 9 10 10 11 11 11 12 12 12 12 12 13 13 13 13 14 14 15 16 16 17 17 18 19 20 21 22 23 24 25 26 27 28 29 29 30 30 30 31 31 31 32 32 33 33 34 35 35 36 36 36 37 37 37 37 37 37 37 37 38 38 38 38 38 38
12 12 11 11 11 11 10 10 10 10 9 9 9 9 9 9 9 9 9 9 9 10 11 11 11 11 12 12 12 12 12 13 13 13 14 14 15 15 16 16 17 17 18 19 20 21 22 23 24 25 26 27 28 29 30 31 31 31 31 32 32 33 33 34 34 35 36 37 37 37 37 38 38 38 38 38 38 38 38 38 38 39 39 39 40
13 13 12 12 11 11 11 10 10 10 10 10 10 10 9 9 9 10 10 10 10 10 11 11 11 11 11 11 12 12 12 13 13 14 14 15 15 15 15 16 17 18 18 20 21 22 23 23 24 26 27 28 29 30 31 32 32 32 32 33 33 33 34 34 35 35 36 37 37 38 38 38 38 39 39 39 39 39 38 38 39 39 40 40 41
14 13 13 12 12 12 11 11 11 11 11 10 10 10 10 10 10 10 10 10 11 11 11 11 11 12 11 11 11 12 12 13 13 14 15 15 15 15 15 16 17 18 19 20 21 22 23 24 25 27 28 29 30 31 32 32 32 33 33 33 33 33 34 34 34 35 36 37 37 37 38 38 38 38 39 39 39 39 38 38 38 39 40 41 41
15 14 13 13 13 12 12 12 12 11 11 11 11 10 10 10 11 11 11 11 11 11 12 11 11 12 11 11 11 12 12 13 14 14 14 15 15 15 15 16 17 18 19 20 21 22 23 24 26 27 29 30 31 32 32 32 33 33 33 33 32 33 33 34 34 35 35 36 37 37 37 38 38 38 39 39 39 39 39 39 38 38 39 40 40
15 15 14 14 14 13 13 13 13 12 12 12 11 11 11 11 11 11 11 11 11 11 11 11 11 11 11 11 11 12 12 13 14 14 14 15 15 15 15 16 17 18 20 21 22 23 24 25 26 28 29 31 31 32 32 33 33 33 33 32 32 32 33 33 34 35 36 36 37 37 38 39 39 39 39 39 39 38 39 39 38 38 38 39 40
16 15 15 15 15 15 15 14 14 13 13 12 12 12 12 12 12 11 11 11 12 11 11 11 11 11 11 11 11 12 13 13 14 14 14 15 15 15 16 17 18 19 20 21 22 23 25 26 27 28 30 31 31 32 32 33 33 33 32 32 32 32 33 34 35 36 36 37 37 38 39 39 39 39 39 38 38 37 37 38 39 39 40 40 40
17 17 16 16 16 16 16 15 14 14 13 13 13 12 12 12 12 12 12 11 11 11 11 11 11 11 11 11 11 12 13 14 14 14 14 15 15 15 16 17 18 19 20 21 22 24 25 26 27 28 30 31 31 32 32 32 32 32 31 31 32 32 33 34 36 36 37 38 38 39 39 40 40 39 38 37 37 37 37 38 39 40 41 41 40
18 18 17 17 17 17 16 15 15 14 14 14 13 13 13 13 13 12 12 11 11 11 11 11 11 11 11 11 12 12 13 14 14 14 14 14 15 16 16 17 18 19 20 21 22 24 26 27 27 28 29 30 31 32 32 32 31 31 31 31 32 33 34 35 36 37 38 38 39 40 40 39 39 38 37 36 36 37 37 38 40 41 42 41 39
18 18 18 18 17 17 16 16 15 15 15 14 14 14 13 13 13 12 12 11 11 11 11 11 11 11 11 11 12 13 13 13 14 14 14 14 15 16 17 18 18 19 19 20 22 24 25 26 27 28 29 30 30 31 31 31 30 31 31 32 32 33 35 36 37 38 38 39 40 40 39 38 37 36 36 35 36 36 38 39 40 41 41 40 39
19 19 19 18 18 18 17 17 16 15 15 15 14 14 14 13 13 12 12 11 11 11 11 11 11 11 11 12 12 12 13 13 13 13 14 14 15 16 17 18 18 19 19 20 22 23 25 26 27 28 29 29 30 30 30 29 30 31 31 32 33 34 35 36 37 38 39 40 40 40 39 37 36 35 35 35 36 36 38 39 40 41 40 40 39
19 19 19 19 19 18 18 17 17 16 15 15 15 14 14 14 13 12 12 11 11 11 11 11 11 11 11 12 12 12 13 13 13 13 14 14 15 16 16 17 18 18 19 20 22 23 24 25 27 28 28 28 29 29 28 29 29 30 31 32 33 34 35 36 37 38 39 40 40 39 37 36 34 34 35 35 36 37 39 40 40 41 41 40 40
20 19 19 19 19 19 18 18 17 17 16 16 15 15 14 14 13 12 12 11 11 11 11 11 11 11 12 12 12 12 12 13 13 13 14 14 15 15 16 17 17 18 19 20 21 22 23 25 26 27 27 27 27 28 28 28 29 29 30 31 32 34 35 36 37 38 39 39 39 38 36 34 33 33 34 35 36 38 39 40 41 41 41 40 39
20 19 19 19 19 19 19 18 18 17 17 17 16 15 15 14 14 13 12 11 11 11 11 11 11 11 12 12 12 12 12 12 13 13 14 14 15 15 16 17 17 18 19 20 21 22 23 24 25 26 26 26 26 27 27 28 28 29 30 31 33 34 35 36 37 38 39 39 38 37 35 33 33 33 35 36 36 38 39 41 42 41 40 40 38
20 20 19 19 19 19 19 19 18 18 18 17 16 16 15 15 14 13 12 12 11 11 11 11 11 11 11 12 12 12 12 12 12 13 13 14 15 15 16 16 17 18 19 20 21 22 23 23 24 25 25 25 26 27 27 27 28 29 30 31 33 34 35 36 38 38 39 39 38 37 34 33 33 34 35 36 37 38 40 41 42 42 41 40 38
20 20 20 20 20 20 20 19 19 19 18 18 17 16 16 15 14 14 13 12 12 12 12 11 11 11 11 11 11 12 12 12 12 12 13 14 15 15 16 16 17 18 19 19 21 22 22 23 23 23 24 24 25 26 27 27 28 29 30 32 33 34 35 36 37 38 39 39 39 38 35 33 34 35 36 37 38 39 40 41 42 43 43 40 37
21 21 20 20 21 21 20 20 20 19 19 18 17 17 16 15 15 14 14 13 13 12 12 11 11 11 11 11 11 12 12 12 12 12 13 14 14 15 15 15 16 17 18 19 20 21 21 22 22 22 22 23 24 25 26 27 28 29 31 32 33 35 36 36 37 38 38 39 39 38 35 33 34 35 36 37 39 39 40 41 44 45 43 40 37
21 21 20 20 21 21 21 20 20 20 19 18 18 17 17 16 15 15 14 14 13 13 12 12 11 11 11 11 11 12 12 12 11 11 12 13 14 14 15 15 15 16 17 18 19 19 20 20 21 21 22 23 24 25 26 27 28 29 31 32 33 35 36 37 37 38 38 39 39 38 36 34 34 35 36 38 39 40 40 41 44 45 43 40 38
20 20 20 20 21 21 21 21 20 20 19 19 18 18 17 16 16 15 14 14 13 13 12 12 11 11 11 11 11 11 12 12 11 11 12 13 14 14 14 15 15 16 17 17 18 18 19 19 20 20 21 22 23 24 25 27 28 29 30 32 33 35 36 37 38 38 38 39 39 39 37 35 34 34 36 37 39 40 41 42 44 45 43 39 37
20 20 20 20 21 21 21 21 21 20 20 19 18 18 17 17 16 15 15 14 13 13 13 12 11 11 11 11 11 11 12 12 11 11 12 13 13 14 14 14 15 15 16 17 17 17 18 18 18 19 21 22 23 24 25 26 28 29 30 31 33 34 36 37 37 38 38 38 39 39 38 36 35 34 36 37 38 40 41 42 44 46 43 39 37
20 20 20 20 21 21 21 21 21 20 20 19 18 18 17 17 16 16 15 14 14 13 13 12 12 11 11 11 11 12 12 11 11 11 12 12 13 13 14 14 14 15 15 16 16 16 17 17 17 19 20 21 22 23 25 26 27 28 30 31 33 34 35 36 37 38 38 39 39 39 39 38 36 35 36 37 39 40 41 42 45 46 43 39 36
20 20 20 21 21 21 21 21 20 20 20 19 19 18 18 17 17 16 15 14 14 13 13 12 12 12 11 11 11 12 11 11 11 11 11 12 13 13 13 13 14 14 14 15 15 15 16 16 17 18 19 20 22 23 24 26 27 28 30 31 33 34 35 36 37 38 39 39 39 39 40 40 38 37 36 38 40 40 41 42 45 46 44 40 37
20 20 21 21 21 21 21 21 20 20 20 19 19 19 18 18 17 16 15 15 14 14 13 13 12 12 11 11 11 11 10 10 10 11 11 12 12 12 12 13 13 13 13 14 14 14 15 15 16 18 19 20 21 23 24 25 26 28 29 31 32 33 34 35 37 38 39 39 39 40 41 41 39 38 38 38 40 41 41 42 44 46 44 41 37
20 20 21 21 21 21 21 21 21 20 20 20 19 19 19 18 18 17 16 16 15 14 14 13 13 13 12 12 11 10 10 10 10 11 11 11 11 12 12 12 12 12 13 13 13 14 14 15 16 17 18 19 21 22 23 25 26 28 29 30 31 32 33 35 36 37 38 39 39 40 40 41 40 39 38 39 40 40 41 41 43 45 44 42 38
20 20 21 21 21 21 21 21 21 21 20 20 20 19 19 19 18 17 17 16 15 15 14 14 14 13 13 12 11 10 10 10 11 11 11 11 11 11 11 11 12 12 12 13 13 13 14 15 16 17 17 19 20 21 22 24 26 27 28 30 31 32 33 34 36 37 38 39 39 40 40 41 40 40 39 39 39 40 41 42 42 44 45 42 39
20 20 21 21 21 21 21 21 21 21 21 20 20 20 19 19 18 18 17 16 16 15 15 14 14 14 13 12 12 11 10 10 11 11 11 11 11 11 11 11 11 12 12 12 13 13 14 15 16 16 17 18 20 21 22 23 25 26 27 29 30 31 32 34 35 36 37 38 39 39 39 40 41 40 40 40 40 41 41 42 42 43 44 42 40
20 21 21 21 22 22 22 22 21 21 21 21 21 20 20 19 19 18 17 16 16 15 15 15 14 14 13 13 12 11 10 11 11 10 10 10 11 10 10 11 11 11 11 12 12 13 14 15 16 16 16 18 19 20 21 22 24 25 26 28 29 30 32 33 34 35 36 37 38 39 39 40 41 41 40 40 40 41 41 42 42 42 43 42 40
21 21 22 22 22 22 22 22 22 22 21 21 21 21 20 19 19 18 17 16 16 15 15 15 15 14 14 13 12 11 11 11 11 10 10 10 10 10 11 11 11 11 12 12 13 13 14 15 16 16 17 18 19 20 21 22 23 24 26 27 28 30 31 32 33 34 35 36 37 38 39 39 40 41 41 41 41 41 41 41 41 41 42 42 40
22 22 22 22 22 22 23 23 22 22 22 22 22 21 20 19 18 18 17 17 17 17 16 16 15 15 14 13 12 11 12 12 11 11 11 11 11 11 11 11 11 12 12 13 13 13 14 15 16 16 17 17 19 20 21 22 23 24 25 26 28 29 30 31 32 33 35 36 36 37 38 39 39 40 41 41 41 41 41 41 41 41 41 41 40
22 23 23 23 23 23 23 23 23 23 23 23 22 21 20 19 17 17 17 17 17 17 16 16 16 15 14 13 13 13 13 12 11 11 11 11 11 11 11 12 12 12 13 13 13 14 15 16 16 17 17 17 18 20 21 21 22 23 25 26 27 28 29 31 32 33 34 35 36 36 37 38 38 39 40 41 41 41 41 40 40 40 40 40 40
23 23 24 24 24 24 24 23 23 23 23 23 22 22 20 19 18 17 16 16 16 16 16 15 15 14 14 13 13 13 13 12 11 11 12 12 12 11 12 12 13 13 12 13 13 14 14 16 16 17 17 18 18 19 20 21 22 23 24 25 26 27 28 29 31 32 33 33 35 35 36 37 37 38 39 40 40 40 41 40 40 40 39 39 39
23 24 24 24 24 24 24 23 23 23 23 23 22 22 21 20 18 17 17 16 16 16 16 16 15 14 14 14 14 14 13 12 12 12 12 12 12 12 12 12 12 12 12 12 13 14 14 16 17 17 17 18 18 19 20 21 22 23 23 24 25 26 27 28 30 31 32 32 33 34 35 36 36 37 37 38 39 40 40 40 40 39 39 38 38
24 24 24 25 25 24 24 24 23 23 23 23 22 22 21 20 19 18 18 17 17 17 16 16 15 15 15 15 15 14 13 13 12 12 12 12 12 12 12 12 12 12 12 12 13 14 15 16 17 17 18 18 19 19 20 21 22 23 23 24 24 25 26 27 28 29 31 31 32 33 34 34 35 36 36 37 37 38 39 39 39 39 38 37 37
24 24 25 25 25 24 24 24 24 24 23 23 23 22 22 21 20 20 19 19 18 17 17 17 16 16 16 16 15 14 13 13 12 12 12 12 12 12 12 12 12 12 12 13 13 14 15 16 17 17 18 18 19 20 20 21 22 23 23 23 24 25 25 26 27 28 29 30 31 32 32 33 34 34 35 35 36 37 38 38 39 38 37 37 36
24 24 25 25 25 25 24 25 25 25 24 24 23 23 22 21 21 21 20 19 18 17 17 17 17 17 17 16 15 14 13 13 12 13 13 13 12 12 12 13 13 13 13 13 14 15 16 16 17 18 18 18 19 20 21 21 22 22 23 23 24 24 25 25 26 27 28 29 30 31 31 32 32 33 33 34 35 35 36 37 37 37 37 36 35
24 24 25 25 25 25 25 25 25 25 25 24 24 23 22 21 22 21 21 19 18 17 17 17 17 17 17 16 15 15 14 13 13 13 13 13 12 12 13 13 13 13 14 14 14 15 16 17 17 18 18 18 19 20 21 22 22 22 23 23 23 24 24 25 25 26 27 28 29 29 30 31 31 32 32 33 33 34 34 35 35 36 36 36 35
24 24 25 26 27 26 26 26 25 25 25 25 24 23 22 22 21 21 20 19 18 18 18 18 17 17 16 16 15 14 14 14 14 14 14 13 13 13 13 13 14 14 15 15 15 16 17 17 18 18 19 19 19 20 21 22 22 22 22 23 23 24 24 25 25 25 26 27 27 28 29 29 30 30 31 31 32 32 32 33 33 34 34 35 34
24 24 25 26 26 26 26 26 25 25 25 25 24 24 23 22 21 20 19 19 19 19 18 18 18 17 16 16 15 15 15 15 15 15 15 14 14 14 14 14 15 15 16 16 16 17 17 18 18 18 19 19 20 20 21 22 22 22 22 22 23 23 24 24 25 25 25 26 26 27 28 28 29 29 29 29 30 30 31 31 31 32 32 33 33
23 24 25 25 25 25 25 25 25 25 25 25 25 24 23 23 22 21 20 20 20 20 19 19 18 17 17 17 16 16 16 16 16 16 16 15 15 15 15 15 16 16 16 17 17 17 18 18 19 19 19 19 20 21 21 21 21 21 21 22 23 23 24 24 24 24 24 25 25 26 27 27 27 28 28 28 28 28 29 29 29 30 30 31 31
21 21 22 23 23 24 24 24 24 25 25 24 24 24 23 23 22 21 21 21 21 20 20 19 19 18 18 18 18 17 17 17 17 17 16 16 16 16 16 16 17 17 17 17 18 18 18 19 19 19 20 20 20 21 21 21 21 21 21 22 22 23 23 24 24 24 24 24 25 25 26 26 26 27 27 27 27 27 27 27 27 27 28 28 29
19 20 20 21 22 23 23 23 24 24 24 23 23 24 23 23 22 22 21 22 21 21 20 20 19 19 19 19 19 18 18 18 17 17 17 17 17 17 17 17 17 17 17 18 18 19 19 19 19 20 20 20 21 21 21 21 21 21 21 22 23 23 24 24 24 24 24 24 24 25 25 25 25 26 25 25 26 26 26 26 26 25 25 26 26
19 19 20 20 22 23 23 23 23 24 24 23 23 24 23 23 22 22 22 22 21 21 21 20 20 19 19 19 19 19 19 18 18 18 18 18 18 18 18 18 18 18 18 19 19 19 20 20 20 20 21 21 21 21 21 21 21 21 22 23 23 24 24 24 24 24 24 25 25 25 24 24 24 24 25 25 24 24 24 24 24 24 24 24 24
19 20 20 21 22 23 24 24 24 24 24 24 24 24 24 23 22 21 21 22 21 21 21 21 21 20 20 19 19 19 19 19 19 19 19 19 18 18 18 18 18 19 19 19 20 20 20 20 20 21 21 21 22 22 22 22 22 22 23 24 24 25 25 25 25 25 24 24 25 24 24 24 24 24 24 24 24 24 23 23 23 23 23 22 22
20 20 21 21 22 24 24 24 24 25 25 24 24 24 24 23 22 22 22 22 22 22 22 21 21 21 21 20 20 19 19 19 19 19 19 19 19 19 19 19 19 19 19 20 20 20 20 20 21 21 21 22 22 22 23 23 24 24 24 24 25 25 25 25 25 25 25 25 25 24 24 24 24 24 24 23 23 23 23 22 22 22 22 22 21
20 20 21 22 23 24 24 24 24 25 25 24 24 24 24 24 23 23 22 22 22 22 22 22 21 21 21 21 20 20 20 20 20 20 19 19 19 19 19 19 19 20 20 21 22 21 21 21 21 22 22 22 23 23 24 24 25 25 26 26 26 26 26 26 26 26 25 25 25 25 24 24 24 24 24 23 23 22 22 22 21 21 21 21 20
21 21 21 22 23 24 24 24 24 25 26 25 24 24 24 23 23 23 23 23 23 23 22 22 22 22 21 21 21 21 20 20 20 20 20 21 21 21 21 21 21 21 22 23 23 23 23 23 23 23 23 24 24 24 25 25 26 26 27 27 27 27 27 27 27 26 26 26 25 25 25 24 24 24 23 23 23 22 22 21 21 20 20 20 19
22 21 22 22 22 23 24 24 24 25 26 25 25 24 24 24 24 24 24 24 24 23 23 22 22 22 22 22 21 21 21 21 21 21 21 22 22 22 22 22 23 23 23 24 24 24 24 24 25 25 25 25 25 26 26 27 27 27 27 28 28 28 28 28 27 27 27 26 26 25 24 24 24 24 23 23 23 22 22 21 21 20 20 19 19
22 22 22 22 22 23 23 23 23 24 25 25 25 25 25 25 25 24 24 24 24 24 24 23 23 23 22 22 22 22 22 22 22 22 22 22 22 22 23 23 23 24 24 24 25 25 25 26 26 26 26 27 27 27 27 28 27 27 27 28 28 28 28 28 28 27 27 26 26 25 25 24 24 24 23 23 22 22 22 22 21 20 20 19 19
23 23 23 23 23 23 23 23 23 24 25 25 25 25 25 25 25 25 25 25 24 24 24 24 23 23 23 23 23 22 22 22 23 23 23 23 24 24 24 25 25 25 25 25 25 26 26 27 27 27 28 28 28 28 28 28 28 28 27 28 28 28 28 28 28 27 27 26 26 26 25 25 24 24 23 23 23 22 22 22 22 21 21 20 20
24 24 23 23 23 24 23 23 24 25 25 26 26 26 26 25 24 24 24 24 24 24 24 24 24 24 24 23 23 23 23 24 24 24 24 25 25 25 26 26 26 27 27 27 27 27 28 28 28 28 28 29 29 29 29 29 29 28 28 28 29 28 28 28 27 27 27 27 26 26 26 25 25 24 24 24 23 23 23 23 22 22 22 21 21
Wind_Direction
224 230 235 238 242 244 247 251 253 255 259 260 258 256 259 264 268 271 275 279 283 287 289 290 292 293 294 296 298 301 304 307 310 312 312 314 317 320 322 324 326 327 328 329 330 330 331 331 330 330 329 329 329 330 329 328 326 325 323 322 321 319 318 316 313 312 312 312 311 310 310 309 307 306 304 302 301 299 298 296 294 292 290 288 285
231 237 239 241 243 243 245 248 250 252 254 254 254 255 260 265 268 272 275 279 284 287 290 292 293 294 295 297 299 302 305 307 310 311 312 315 319 321 323 325 327 328 328 329 330 330 331 331 331 330 330 329 330 330 330 329 327 325 324 323 321 320 319 317 314 312 312 312 312 310 310 309 307 306 304 302 301 300 298 296 294 292 291 289 286
235 238 239 239 240 240 241 244 246 249 250 251 253 256 261 266 269 272 276 281 286 289 291 293 294 295 296 299 301 303 306 308 311 312 313 316 319 322 324 326 328 329 329 329 330 330 330 331 331 330 330 330 331 331 330 330 328 327 325 324 323 321 320 319 316 314 312 313 312 311 310 309 307 306 304 302 301 300 298 296 295 293 291 289 287
234 236 236 238 240 239 240 242 245 248 249 251 254 258 263 268 270 274 278 283 288 291 293 293 293 294 296 299 301 303 306 309 311 313 315 317 319 322 324 327 329 330 330 330 330 330 330 331 331 331 331 332 331 331 331 330 330 328 327 325 323 323 322 321 319 317 315 314 314 313 312 311 310 308 306 304 302 300 298 296 294 293 291 289 287
233 234 236 239 240 240 240 242 246 248 249 252 256 260 265 268 271 276 280 285 289 291 292 293 292 294 295 298 300 302 306 309 311 314 316 318 319 321 324 327 329 330 331 331 331 330 330 331 331 331 332 333 332 332 332 331 331 330 328 326 325 324 323 322 322 321 319 317 316 316 315 314 312 311 309 306 304 301 299 296 295 293 291 290 287
233 235 238 240 240 241 242 244 247 249 250 254 258 262 265 268 273 277 281 285 288 290 291 292 292 293 295 297 299 302 306 310 312 313 315 318 319 321 323 325 328 330 330 331 331 331 331 330 331 332 333 333 333 333 333 332 331 331 330 328 327 326 326 325 325 324 322 321 319 318 317 316 314 313 311 309 306 303 301 298 296 295 294 291 289
233 236 240 241 241 242 244 246 249 251 253 255 260 264 266 269 273 278 281 285 287 289 291 292 294 294 295 297 299 302 307 310 312 314 315 318 320 321 322 324 326 328 328 330 331 332 332 331 331 333 334 334 334 333 333 332 332 331 331 330 330 329 328 328 327 326 325 324 323 321 319 318 316 314 313 312 309 306 304 301 299 298 297 295 292
234 237 240 241 241 244 246 248 250 252 254 256 260 263 265 268 273 277 281 284 286 289 292 293 295 295 295 298 300 303 307 310 312 314 316 318 319 321 322 322 324 326 327 329 331 332 332 332 332 334 335 335 335 334 333 332 332 332 332 332 332 331 330 330 329 329 328 326 325 323 322 320 319 317 316 314 312 310 308 305 301 300 299 297 294
236 238 240 241 242 244 246 248 249 251 253 255 258 261 263 267 272 277 281 284 287 290 292 293 295 296 297 298 300 304 308 310 312 314 316 318 319 320 321 322 322 324 326 328 330 331 333 333 334 335 336 336 336 335 334 334 334 334 335 335 334 333 332 332 331 330 329 329 328 326 324 323 321 320 318 317 315 313 312 309 306 304 302 299 296
236 238 239 241 243 244 245 246 248 250 252 254 257 258 261 266 271 276 281 285 289 290 292 294 295 296 297 299 301 305 307 310 312 314 315 317 318 321 322 322 322 323 325 327 329 331 332 334 335 337 337 337 337 336 336 336 336 337 337 336 336 336 335 334 333 333 332 331 330 328 326 325 324 323 321 320 318 317 316 314 311 309 307 303 300
236 238 239 242 243 244 244 245 248 249 250 253 255 256 260 265 270 276 281 285 288 290 291 293 295 296 297 299 302 306 308 310 312 313 315 316 318 321 324 324 324 323 324 327 329 330 333 334 336 337 338 337 337 337 338 338 338 339 339 339 339 338 337 336 336 335 334 333 332 331 329 327 327 327 325 323 322 321 320 318 315 313 311 307 304
237 239 241 243 243 243 244 245 246 247 249 251 253 255 259 264 270 275 280 284 287 288 291 293 294 295 297 299 304 306 308 311 312 313 315 317 318 320 322 324 324 324 325 327 329 332 333 335 337 338 338 338 338 339 339 340 341 341 341 341 341 341 341 339 338 337 336 335 334 333 332 331 330 330 329 327 326 325 324 323 321 318 315 312 307
238 240 242 243 243 242 243 244 244 246 248 251 253 255 259 264 269 274 277 281 284 287 290 291 292 295 297 300 304 307 309 311 313 314 316 318 320 321 322 323 324 325 326 329 331 333 334 336 338 338 338 338 339 340 341 342 343 343 344 344 344 344 343 342 341 340 339 338 337 336 335 334 333 332 332 331 329 328 328 326 324 321 319 316 312
238 241 242 243 242 242 242 243 243 245 248 250 252 255 258 262 268 272 274 278 281 285 288 290 292 294 297 300 304 306 308 311 312 314 316 319 321 322 322 323 325 327 328 330 333 334 335 337 338 338 339 340 342 343 344 344 345 346 346 347 347 346 346 345 344 343 343 342 340 339 338 337 336 335 335 334 332 331 330 328 326 324 321 319 317
239 241 243 242 241 241 241 242 244 245 247 249 251 254 256 261 265 268 271 274 278 282 286 289 291 294 297 300 303 305 307 309 312 314 316 319 320 320 321 323 326 328 329 331 334 335 335 337 339 339 341 342 344 345 346 346 348 349 349 349 349 349 349 348 347 346 346 345 343 342 341 340 339 338 337 337 335 333 332 331 329 327 324 323 321
238 241 242 242 241 241 241 242 244 245 246 248 250 252 255 258 261 264 266 270 275 280 285 288 291 294 297 300 302 304 306 308 312 314 316 317 317 318 320 322 325 329 331 333 336 336 336 337 339 341 343 345 347 348 349 349 351 352 351 351 352 352 351 350 349 349 348 347 346 344 343 342 342 341 340 339 337 335 335 334 333 332 330 327 325
239 240 241 242 241 241 241 242 242 243 244 246 248 250 253 256 258 260 261 265 270 276 282 286 290 293 296 299 302 304 306 308 311 315 317 318 318 318 319 321 324 329 333 335 337 337 337 339 341 343 346 348 349 350 351 353 353 354 354 354 354 354 353 353 352 351 351 350 350 348 346 344 344 344 343 342 340 338 338 337 337 337 335 332 329
239 241 241 242 242 241 241 240 241 242 244 245 247 249 251 253 255 257 258 262 267 272 278 283 288 292 294 297 301 303 305 307 310 314 317 320 321 321 321 322 325 329 333 335 336 337 339 341 343 346 348 350 351 352 354 355 355 356 356 356 356 355 355 355 355 354 354 354 353 352 349 348 347 347 347 345 343 342 342 341 341 341 339 335 333
240 241 241 241 241 241 239 239 240 241 243 245 246 247 249 250 253 255 258 261 264 268 274 279 283 288 292 296 300 303 303 305 308 313 317 320 323 324 323 324 327 331 334 335 336 338 340 342 345 348 351 352 352 354 355 356 357 358 358 357 357 357 357 357 357 356 356 356 356 355 353 351 350 350 350 349 347 346 346 345 344 344 342 339 336
241 242 242 242 241 239 238 238 240 241 243 244 245 246 247 249 251 253 256 259 261 265 270 274 279 284 289 294 299 302 303 305 306 311 317 321 323 324 324 326 330 333 335 335 337 339 341 344 347 350 352 353 354 355 355 356 358 359 359 359 359 358 359 359 358 358 358 358 358 358 357 355 353 353 353 352 351 350 349 349 349 348 345 342 340
240 241 241 241 239 238 238 239 240 242 243 244 244 245 246 247 248 250 252 256 258 262 267 270 274 280 286 292 298 301 302 304 306 311 316 320 322 324 325 327 331 334 336 337 339 341 343 346 350 351 352 354 355 356 356 357 359 0 0 0 360 359 0 1 0 0 0 360 360 360 359 358 357 356 356 355 354 353 353 352 353 352 349 346 344
239 239 239 238 237 237 238 239 241 243 243 243 242 243 244 245 246 248 250 253 256 259 263 266 270 277 283 290 296 300 300 301 306 311 315 318 321 324 326 327 331 335 337 339 341 343 346 349 351 351 352 354 356 356 357 358 0 1 1 1 0 1 2 3 3 3 2 2 1 2 1 1 360 358 358 358 357 356 355 355 355 355 354 351 349
239 238 237 236 235 235 236 238 240 242 242 241 241 241 242 243 244 246 248 251 254 257 259 262 268 274 280 286 292 295 296 299 305 308 311 317 322 325 327 329 332 336 339 341 343 344 347 350 351 351 352 355 356 357 358 360 1 1 1 1 1 2 3 4 4 4 4 3 3 3 3 3 2 1 0 0 360 358 358 358 358 358 358 356 354
238 237 236 235 235 235 236 237 238 240 240 239 239 239 240 241 243 245 247 249 252 254 256 260 265 270 276 282 286 288 291 297 301 304 310 317 321 324 328 332 335 337 339 341 343 345 347 349 350 350 352 354 356 357 358 0 1 1 1 2 2 3 4 4 5 5 5 5 5 5 5 5 4 3 3 2 1 0 0 1 1 1 1 1 359
236 235 234 234 234 235 236 236 237 237 238 238 238 238 238 239 241 244 246 248 250 252 254 258 263 269 275 277 278 280 286 292 296 302 309 315 320 324 329 332 336 338 339 340 343 344 346 348 349 350 352 354 355 357 358 360 1 1 2 2 2 3 4 4 5 5 5 5 6 6 6 6 6 6 5 4 3 2 3 4 4 5 5 5 5
235 234 234 233 234 234 234 235 236 236 236 237 237 237 237 239 241 244 246 248 250 251 253 257 262 268 272 271 271 275 281 286 293 302 307 312 318 324 327 331 334 336 337 339 341 343 345 347 349 349 351 352 353 355 357 358 360 1 2 2 3 3 4 4 5 6 6 6 6 6 7 7 7 7 7 6 6 5 5 6 6 7 8 8 9
235 234 233 233 233 233 234 234 235 235 236 236 236 236 238 240 242 242 243 246 248 251 254 257 261 264 265 266 268 271 276 283 291 298 303 310 316 321 325 329 332 334 335 337 339 341 344 346 347 347 348 350 351 353 354 356 358 359 1 1 2 3 4 4 5 5 5 6 6 7 8 8 8 8 8 9 8 8 7 8 9 9 10 11 12
235 234 233 232 233 233 234 234 234 235 235 235 235 236 238 240 241 241 241 244 247 250 253 256 258 258 259 262 264 267 272 280 287 292 300 308 313 317 322 326 328 330 332 334 336 338 341 343 345 345 346 348 350 351 352 354 355 357 359 360 1 2 3 4 4 5 5 6 7 7 8 9 9 9 9 10 10 9 9 10 11 12 12 13 15
235 233 233 233 233 234 234 234 234 235 235 235 236 237 239 240 240 239 242 246 248 250 252 254 254 255 256 259 261 264 270 276 281 287 297 305 309 312 317 320 322 325 327 329 332 336 338 341 342 342 343 345 347 348 350 351 353 354 356 358 359 1 2 3 4 4 5 5 6 7 8 9 9 10 10 10 11 11 11 11 12 13 15 16 17
235 234 234 234 234 234 234 234 235 235 235 234 235 237 239 239 239 241 245 247 248 249 251 251 250 251 254 258 262 267 271 274 277 285 295 300 304 307 310 313 317 319 321 325 330 333 336 338 339 339 339 341 343 345 347 349 350 352 353 355 357 359 0 1 2 3 4 5 6 6 7 8 9 10 11 11 11 12 12 12 13 14 16 18 19
236 236 235 235 234 234 234 235 235 235 235 234 234 235 236 236 238 243 247 247 246 245 246 246 245 247 250 256 263 267 269 271 275 284 291 296 299 303 306 310 312 313 316 321 326 330 333 335 336 336 336 337 339 341 343 345 347 349 351 353 354 356 358 359 1 2 3 4 5 6 7 8 9 10 11 11 12 13 13 14 14 15 17 19 20
238 237 236 235 234 234 234 234 234 234 234 234 234 233 232 233 236 242 244 243 242 241 241 242 242 244 248 254 259 263 267 271 277 282 287 290 295 300 305 307 308 309 313 317 322 326 329 331 333 334 334 334 336 338 340 342 344 346 348 350 352 354 356 357 358 360 1 3 4 5 6 7 8 10 11 12 12 13 14 14 15 15 17 19 21
239 238 237 235 234 234 233 233 234 234 233 233 231 230 230 231 233 236 238 239 240 240 241 241 242 244 247 251 255 260 266 272 276 279 283 287 293 300 304 305 305 306 309 314 318 322 325 328 330 332 332 332 333 335 337 340 341 343 345 347 349 351 353 355 356 358 360 1 3 4 5 6 8 9 10 11 13 14 14 15 15 16 17 19 21
240 238 236 234 233 233 233 233 233 233 232 231 228 227 229 231 232 233 234 235 236 237 240 242 244 247 249 251 255 261 266 270 273 276 281 287 293 297 300 302 303 305 307 310 314 318 322 325 327 329 329 330 331 333 335 337 339 340 341 343 346 348 350 352 354 356 358 359 1 3 4 5 6 8 9 10 12 14 15 16 16 16 17 18 20
240 237 234 233 232 232 233 233 232 232 231 229 227 228 230 232 233 233 233 233 233 236 240 244 247 249 250 253 258 262 266 268 271 275 281 286 290 294 296 299 301 304 306 308 311 314 318 321 324 326 326 327 328 330 332 335 336 338 339 340 343 345 347 349 352 354 356 357 359 1 2 4 5 6 8 9 10 12 14 15 16 16 16 17 19
240 237 233 231 231 232 232 233 232 232 231 229 228 229 230 231 231 232 232 232 234 238 242 245 247 248 250 254 257 260 264 268 271 275 278 281 285 289 292 295 298 302 305 306 308 311 315 318 320 322 323 323 325 327 330 332 334 335 336 338 340 342 344 346 348 351 353 355 357 358 0 2 3 5 7 8 9 11 13 14 16 17 17 17 18
240 237 234 232 232 231 232 233 233 232 231 229 228 228 228 229 230 231 231 232 235 239 242 243 245 246 250 254 256 259 263 268 270 273 275 277 281 286 289 292 295 300 303 306 308 311 313 315 317 320 320 320 322 324 327 329 332 333 334 335 337 339 341 342 344 347 349 352 354 356 357 359 1 3 5 6 7 9 11 13 14 16 17 17 18
240 238 236 235 234 233 233 233 232 231 229 228 226 226 226 227 228 229 229 231 234 237 240 242 244 247 250 255 257 259 263 266 268 270 273 275 279 283 287 290 294 298 302 306 308 310 312 314 316 318 319 319 320 322 324 327 329 331 332 333 334 336 337 339 341 343 345 348 351 353 354 356 358 0 2 4 6 7 9 11 13 14 16 17 18
240 238 236 234 234 233 231 229 229 228 227 225 225 225 225 225 225 226 229 231 234 237 240 243 246 249 252 256 257 258 260 262 264 268 271 274 277 281 285 288 292 296 301 305 307 308 310 312 314 316 317 317 318 319 322 324 327 328 330 331 332 333 334 336 337 339 341 344 346 349 351 353 355 357 359 1 3 5 6 8 10 12 14 15 17
241 240 236 233 231 229 228 227 227 227 225 224 224 224 223 223 225 228 231 234 236 239 242 245 248 251 254 255 256 256 258 261 264 267 270 273 275 279 282 285 290 294 298 303 306 307 308 310 313 314 315 315 316 317 320 322 324 325 327 328 329 331 332 333 334 335 337 339 341 344 346 349 351 353 355 357 359 1 3 5 7 9 12 13 15
240 237 233 231 229 228 227 227 226 225 223 222 222 222 221 224 228 231 233 236 239 242 244 246 249 252 254 254 254 255 258 262 264 266 269 272 275 277 280 283 288 293 297 301 305 307 308 309 310 311 312 313 314 316 318 320 321 322 324 326 327 329 330 331 331 332 333 334 336 339 341 344 346 348 351 353 355 357 359 2 4 6 8 11 13
234 232 229 229 229 228 226 224 222 221 220 221 222 222 223 226 230 232 235 238 241 243 245 247 249 251 253 253 253 254 257 261 263 265 268 272 274 277 279 283 286 291 295 299 303 306 308 308 308 309 310 311 312 314 317 318 319 319 320 323 324 326 327 328 329 329 330 331 332 333 335 338 341 343 345 347 350 352 354 357 360 2 4 6 9
231 230 230 231 231 230 227 224 221 220 222 224 225 225 226 229 231 234 237 239 242 243 244 246 248 251 253 254 253 254 257 260 263 265 269 272 275 277 280 282 285 289 293 297 300 303 305 306 307 307 308 308 310 312 314 316 316 317 318 320 322 323 325 326 326 327 328 328 329 329 330 332 334 337 339 342 344 347 349 352 354 357 359 1 3
232 233 232 232 232 231 229 226 224 224 226 228 229 229 230 231 234 237 239 241 243 245 245 247 248 251 253 254 254 254 257 260 262 265 268 272 275 278 280 283 286 288 291 294 296 299 302 304 306 307 307 307 307 309 310 311 313 314 316 318 319 320 322 324 325 325 326 326 326 327 327 328 329 331 333 336 338 341 343 346 349 351 354 356 358
235 235 234 233 232 231 229 228 227 227 229 231 233 232 232 233 236 239 241 243 245 246 246 247 249 250 252 253 254 255 258 260 262 265 268 271 275 278 281 283 286 288 289 292 294 296 298 301 304 306 307 307 306 307 307 308 309 311 313 314 316 317 319 320 322 323 324 324 325 325 325 325 326 326 327 329 332 334 337 339 342 345 347 350 352
236 235 234 233 233 231 230 230 229 229 231 234 235 235 235 236 238 241 243 245 246 246 247 248 249 250 251 252 254 256 258 260 262 265 268 271 275 278 281 283 285 287 288 290 292 294 296 298 300 303 305 306 305 305 305 306 308 309 310 311 313 314 315 316 318 320 322 322 323 324 323 323 324 324 324 325 326 328 331 333 336 338 341 343 345
236 234 234 234 234 233 232 231 231 231 232 235 236 236 236 237 239 241 243 245 246 247 247 248 249 250 251 253 254 256 258 260 263 266 269 272 275 277 280 282 284 286 288 289 291 292 294 296 297 299 301 302 304 304 304 305 306 308 309 310 311 311 312 314 315 317 318 319 320 321 322 322 322 322 323 323 323 324 325 327 329 332 334 336 338
234 234 235 235 234 233 233 233 233 232 234 236 237 237 238 239 241 242 243 244 245 246 247 248 249 250 252 254 256 257 259 262 264 267 270 272 275 277 280 282 284 285 287 289 290 291 292 293 294 296 297 299 301 303 303 303 304 306 307 309 309 310 311 312 313 314 315 316 317 317 318 319 320 320 321 321 321 322 322 322 323 325 327 329 331
234 235 236 235 234 235 236 235 235 235 236 238 239 240 241 243 243 243 243 244 245 245 246 248 249 251 253 255 258 259 261 263 265 268 270 273 275 278 280 282 283 285 287 288 290 291 292 292 293 294 296 297 299 301 301 301 302 304 306 307 307 308 309 310 310 312 313 314 315 315 315 316 316 317 318 318 319 319 319 319 318 318 320 321 323
236 237 237 236 234 235 237 238 238 239 239 240 241 242 243 244 244 244 244 244 245 245 246 247 249 251 254 257 259 261 262 264 267 269 271 274 276 278 279 281 282 284 286 287 289 290 291 291 292 293 294 295 297 298 299 299 299 301 303 304 305 307 308 309 309 310 311 312 313 313 313 313 313 313 314 315 316 316 316 316 315 314 314 314 315
238 238 238 235 233 233 236 238 239 240 241 241 242 243 243 243 243 243 244 244 245 246 247 248 250 252 255 258 260 262 264 266 268 270 272 274 276 278 279 281 282 284 285 287 288 289 290 291 291 292 293 294 295 297 298 298 297 298 299 301 303 304 306 307 308 308 309 309 310 311 312 312 311 311 312 313 314 313 313 313 313 312 311 310 309